sat.trackr.live / text

‹ back to catalog

ONEWEB-0156

NORAD 48052 · 2021-025L

PAYLOAD ACTIVE UNKNOWN

§ Identity

Operator
Country
UK
Launch date
2021-03-25
Launch site
VOSTO
Launch vehicle
Mass (kg)
RCS (m²)

Purposes: comms

External: N2YO · Heavens-Above · Gunter

§ Orbital elements

Epoch: 2026-09-12T02:42:40.422240Z

Period
109.63 min
Inclination
87.8935°
Eccentricity
0.0001797
Mean motion
13.13469178 rev/d
Perigee alt
1,208.4 km
Apogee alt
1,211.1 km
Semi-major
7,587.9 km
B*
4.2828e-4
RAAN
302.9314°
Arg perigee
98.3137°
Mean anomaly
261.8196°
Rev number
26,498

§ Raw data

ONEWEB-01561 48052U 21025L   26255.11296785  .00000169  00000+0  42828-3 0  99902 48052  87.8935 302.9314 0001797  98.3137 261.8196 13.13469178264983

JSON: /api/v1/satellites/48052 · /tle

For live sub-satellite position, see the globe view (requires WebGL).

§ Visibility from observer

Set your observer location to see the next 7 days of passes ≥ 10°. The values pass through the URL so the page stays shareable.

No JS? Fill the form by hand. The geolocation button needs JavaScript.